OK1PHU-6 Weather Reports


time (UTC)temp
F
wind
direction
speed
knots
gust
knots
rain 1hr
in
rain 24hr
in
rain mn
in
humidity
%
barometer
mb
20260507211106 0 0 0.0 0.9 0.00 0.00 0.00 1015.0
20260507210024 0 270 0.0 1.7 0.00 0.00 0.00 1015.0
20260507204940 0 0 0.0 2.6 0.00 0.00 0.00 1014.8
20260507203855 0 0 0.9 1.7 0.00 0.00 0.00 1014.8
20260507202812 0 0 0.9 2.6 0.00 0.00 0.00 1014.6
20260507201729 0 293 0.0 2.6 0.00 0.00 0.00 1014.5
20260507200646 0 315 0.0 2.6 0.00 0.00 0.00 1014.3
20260507195601 0 0 0.9 2.6 0.00 0.00 0.00 1014.1
20260507194516 0 0 1.7 2.6 0.00 0.00 0.00 1014.1
20260507193433 0 0 1.7 5.2 0.00 0.00 0.00 1014.1
20260507192347 0 0 2.6 4.3 0.00 0.00 0.00 1013.9
20260507191300 0 338 3.5 5.2 0.00 0.00 0.00 1013.8
20260507190217 0 0 3.5 8.7 0.00 0.00 0.00 1013.5
20260507185132 0 0 3.5 8.7 0.00 0.00 0.00 1013.3
20260507184047 0 0 2.6 7.0 0.00 0.00 0.00 1013.0
20260507183000 0 45 4.3 8.7 0.00 0.00 0.00 1012.6
20260507181918 0 315 0.0 3.5 0.00 0.00 0.00 1012.2
20260507180833 0 0 0.9 4.3 0.00 0.00 0.00 1012.0
20260507175749 0 0 5.2 7.8 0.00 0.00 0.00 1012.0
20260507174706 0 338 4.3 4.3 0.00 0.00 0.00 1011.9
20260507173622 0 23 3.5 5.2 0.00 0.00 0.00 1011.5
20260507172537 0 270 4.3 7.0 0.00 0.00 0.00 1011.4
20260507171456 0 270 4.3 6.1 0.00 0.00 0.00 1011.4
20260507170412 0 338 2.6 5.2 0.00 0.00 0.00 1011.3
20260507165328 0 338 2.6 4.3 0.00 0.00 0.00 1011.3
20260507164246 0 45 3.5 6.1 0.00 0.00 0.00 1011.2
20260507163203 0 0 0.9 6.1 0.00 0.00 0.00 1011.1
20260507162121 0 315 1.7 7.0 0.00 0.00 0.00 1011.1
20260507161041 0 45 2.6 6.1 0.00 0.00 0.00 1011.0
20260507155953 0 315 5.2 9.6 0.00 0.00 0.00 1010.8
20260507154911 0 270 3.5 9.6 0.00 0.00 0.00 1010.8
20260507153827 0 0 4.3 8.7 0.00 0.00 0.00 1010.7
20260507152743 0 0 4.3 8.7 0.00 0.00 0.00 1010.6
20260507151658 0 0 4.3 8.7 0.00 0.00 0.00 1010.5
20260507150615 0 45 2.6 7.0 0.00 0.00 0.00 1010.4
20260507145532 0 45 3.5 7.0 0.00 0.00 0.00 1010.2
20260507144449 0 338 3.5 6.1 0.00 0.00 0.00 1010.2
20260507143406 0 315 1.7 7.0 0.00 0.00 0.00 1010.4
20260507142322 0 225 2.6 8.7 0.00 0.00 0.00 1010.6
20260507141238 0 270 0.9 4.3 0.00 0.00 0.00 1010.6
20260507140154 0 270 2.6 9.6 0.00 0.00 0.00 1010.8
20260507135108 0 293 6.1 12.2 0.00 0.00 0.00 1010.8
20260507134025 0 0 2.6 7.8 0.00 0.00 0.00 1010.5
20260507132941 0 0 8.7 10.4 0.00 0.00 0.00 1010.4
20260507131854 0 293 1.7 7.0 0.00 0.00 0.00 1010.4
20260507130810 0 315 4.3 9.6 0.00 0.00 0.00 1010.6
20260507125726 0 293 5.2 7.0 0.00 0.00 0.00 1010.5
20260507124649 0 45 1.7 8.7 0.00 0.00 0.00 1010.4
20260507123559 0 315 5.2 8.7 0.00 0.00 0.00 1010.5
20260507122515 0 315 3.5 8.7 0.00 0.00 0.00 1010.4
20260507121436 0 270 6.1 11.3 0.00 0.00 0.00 1010.3
20260507120352 0 270 7.0 8.7 0.00 0.00 0.00 1010.4
20260507115310 0 315 5.2 7.0 0.00 0.00 0.00 1010.5
20260507114227 0 270 9.6 14.8 0.00 0.00 0.00 1010.5
20260507113143 0 270 11.3 13.0 0.00 0.00 0.00 1010.5
20260507112059 0 0 2.6 14.8 0.00 0.00 0.00 1010.4
20260507111016 0 248 7.8 13.9 0.00 0.00 0.00 1010.4
20260507105933 0 315 5.2 7.8 0.00 0.00 0.00 1010.4
20260507104851 0 338 4.3 9.6 0.00 0.00 0.00 1010.3
20260507103809 0 270 1.7 10.4 0.00 0.00 0.00 1010.3
20260507102727 0 270 7.8 13.9 0.00 0.00 0.00 1010.4
20260507101643 0 45 3.5 7.8 0.00 0.00 0.00 1010.3
20260507100557 0 293 8.7 12.2 0.00 0.00 0.00 1010.4
20260507095514 0 45 1.7 10.4 0.00 0.00 0.00 1010.5
20260507094431 0 315 4.3 8.7 0.00 0.00 0.00 1010.6
20260507093347 0 270 6.1 10.4 0.00 0.00 0.00 1010.4
20260507092306 0 0 7.0 9.6 0.00 0.00 0.00 1010.5
20260507091222 0 0 3.5 10.4 0.00 0.00 0.00 1010.5
20260507090138 0 23 4.3 7.0 0.00 0.00 0.00 1010.5
20260507085056 0 315 6.1 8.7 0.00 0.00 0.00 1010.5
20260507084012 0 270 7.0 8.7 0.00 0.00 0.00 1010.5
20260507082928 0 270 4.3 6.1 0.00 0.00 0.00 1010.6
20260507081845 0 90 1.7 6.1 0.00 0.00 0.00 1010.6
20260507080802 0 315 4.3 5.2 0.00 0.00 0.00 1010.5
20260507075722 0 338 1.7 5.2 0.00 0.00 0.00 1010.5
20260507074640 0 315 2.6 6.1 0.00 0.00 0.00 1010.4
20260507073557 0 23 3.5 7.0 0.00 0.00 0.00 1010.4
20260507072514 0 270 6.1 9.6 0.00 0.00 0.00 1010.4
20260507071430 0 270 3.5 10.4 0.00 0.00 0.00 1010.4
20260507070346 0 270 7.8 13.9 0.00 0.00 0.00 1010.3
20260507065306 0 293 2.6 11.3 0.00 0.00 0.00 1010.3
20260507064221 0 270 5.2 9.6 0.00 0.00 0.00 1010.2
20260507063138 0 225 5.2 7.8 0.00 0.00 0.00 1010.0
20260507062056 0 315 2.6 7.0 0.00 0.00 0.00 1009.8
20260507061013 0 270 6.1 8.7 0.00 0.00 0.00 1009.6
20260507055930 0 270 1.7 7.0 0.00 0.00 0.00 1009.6
20260507054847 0 0 4.3 8.7 0.00 0.00 0.00 1009.6
20260507053804 0 23 3.5 7.8 0.00 0.00 0.00 1009.5
20260507052724 0 0 0.9 4.3 0.00 0.00 0.00 1009.4
20260507051641 0 0 2.6 6.1 0.00 0.00 0.00 1009.3
20260507050559 0 45 2.6 4.3 0.00 0.00 0.00 1009.2
20260507045515 0 270 2.6 7.0 0.00 0.00 0.00 1009.1
20260507043349 0 270 7.8 7.8 0.00 0.00 0.00 1008.9
20260507042306 0 270 2.6 7.0 0.00 0.00 0.00 1008.7
20260507041039 0 225 0.9 3.5 0.00 0.00 0.00 1008.5
20260507035940 0 225 0.0 5.2 0.00 0.00 0.00 1008.4
20260507034859 0 270 1.7 7.0 0.00 0.00 0.00 1008.3
20260507033817 0 90 1.7 4.3 0.00 0.00 0.00 1008.2
20260507032727 0 225 3.5 3.5 0.00 0.00 0.00 1008.1
20260507031641 0 225 1.7 2.6 0.00 0.00 0.00 1008.2
20260507030547 0 135 1.7 2.6 0.00 0.00 0.00 1008.1
20260507025503 0 135 0.9 2.6 0.00 0.00 0.00 1007.9
20260507024419 0 180 0.9 4.3 0.00 0.00 0.00 1007.9
20260507023336 0 270 1.7 3.5 0.00 0.00 0.00 1008.0
20260507022250 0 270 3.5 4.3 0.00 0.00 0.00 1008.0
20260507021208 0 135 0.9 1.7 0.00 0.00 0.00 1007.5
20260507020121 0 135 0.0 2.6 0.00 0.00 0.00 1007.5
20260507015037 0 90 0.9 1.7 0.00 0.00 0.00 1007.3
20260507013955 0 135 0.0 0.9 0.00 0.00 0.00 1007.3
20260507012910 0 225 0.0 0.0 0.00 0.00 0.00 1007.4
20260507011827 0 225 0.0 1.7 0.00 0.00 0.00 1007.4
20260507010743 0 315 0.0 0.9 0.00 0.00 0.00 1007.2
20260507005659 0 0 0.0 1.7 0.00 0.00 0.00 1007.4
20260507004615 0 315 0.0 3.5 0.00 0.00 0.00 1007.1
20260507003530 0 315 0.9 2.6 0.00 0.00 0.00 1007.2
20260507002447 0 315 0.0 3.5 0.00 0.00 0.00 1006.8
20260507001404 0 315 0.9 2.6 0.00 0.00 0.00 1006.7
20260507000321 0 45 1.7 2.6 0.00 0.00 0.00 1006.6
20260506235236 0 0 0.9 2.6 0.00 0.00 0.00 1006.5
20260506234156 0 315 0.0 0.9 0.00 0.00 0.00 1006.4
20260506233113 0 0 0.0 1.7 0.00 0.00 0.00 1006.3
20260506232027 0 0 1.7 3.5 0.00 0.00 0.00 1006.3
20260506230942 0 0 0.9 5.2 0.00 0.00 0.00 1006.5
20260506225859 0 23 3.5 4.3 0.00 0.00 0.00 1006.4
20260506224818 0 45 3.5 7.0 0.00 0.00 0.00 1006.4
20260506223735 0 0 2.6 5.2 0.00 0.00 0.00 1006.4
20260506222653 0 0 1.7 5.2 0.00 0.00 0.00 1006.5
20260506221609 0 23 2.6 7.0 0.00 0.00 0.00 1006.4
20260506220526 0 45 3.5 9.6 0.00 0.00 0.00 1006.1
20260506215439 0 315 2.6 6.1 0.00 0.00 0.00 1005.5
20260506214359 0 270 1.7 2.6 0.00 0.00 0.00 1004.6
20260506213315 0 0 1.7 1.7 0.00 0.00 0.00 1004.3
20260506212232 0 135 0.0 0.9 0.00 0.00 0.00 1004.1